Time,TemperatureF,DewpointF,PressureIn,WindDirection,WindDirectionDegrees,WindSpeedMPH,WindSpeedGustMPH,Humidity,HourlyPrecipIn,Conditions,Clouds,dailyrainin,SoftwareType,DateUTC
2013-07-13 00:03:00,56.8,31.5,30.02,NE,40,3.6,3.6,38,0.00,CLR,SCT,0.00,WeatherDisplay:10.37,2013-07-13 07:03:00,
2013-07-13 00:08:00,56.5,31.2,30.02,North,0,5.8,5.8,38,0.00,CLR,SCT,0.00,WeatherDisplay:10.37,2013-07-13 07:08:00,
2013-07-13 00:13:00,56.3,31.0,30.02,North,0,5.8,5.8,38,0.00,CLR,SCT,0.00,WeatherDisplay:10.37,2013-07-13 07:13:00,
2013-07-13 00:18:00,55.9,30.7,30.02,North,0,3.5,3.6,38,0.00,CLR,SCT,0.00,WeatherDisplay:10.37,2013-07-13 07:18:00,
2013-07-13 00:24:00,55.9,31.3,30.05,North,0,4.6,4.6,39,0.00,CLR,SCT,0.00,WeatherDisplay:10.37,2013-07-13 07:24:00,
2013-07-13 00:29:00,55.6,31.0,30.05,North,0,4.9,4.9,39,0.00,CLR,SCT,0.00,WeatherDisplay:10.37,2013-07-13 07:29:00,
2013-07-13 00:34:00,55.4,31.5,30.05,North,11,3.6,3.6,40,0.00,CLR,SCT,0.00,WeatherDisplay:10.37,2013-07-13 07:34:00,
2013-07-13 00:39:00,55.0,31.1,30.05,North,0,3.5,3.5,40,0.00,CLR,SCT,0.00,WeatherDisplay:10.37,2013-07-13 07:39:00,
2013-07-13 00:44:00,54.9,31.0,30.05,North,0,3.5,3.5,40,0.00,CLR,SCT,0.00,WeatherDisplay:10.37,2013-07-13 07:44:00,
2013-07-13 00:50:00,54.7,31.4,30.05,North,0,3.5,4.0,41,0.00,CLR,SCT,0.00,WeatherDisplay:10.37,2013-07-13 07:50:00,
2013-07-13 00:55:00,54.5,31.3,30.05,North,0,3.5,3.6,41,0.00,CLR,SCT,0.00,WeatherDisplay:10.37,2013-07-13 07:55:00,
2013-07-13 01:00:00,54.3,31.1,30.05,North,0,3.6,3.6,41,0.00,CLR,SCT,0.00,WeatherDisplay:10.37,2013-07-13 08:00:00,
2013-07-13 01:05:00,54.1,31.5,30.05,North,0,3.5,3.5,42,0.00,CLR,SCT,0.00,WeatherDisplay:10.37,2013-07-13 08:05:00,
2013-07-13 01:10:00,53.8,31.2,30.05,North,0,4.6,4.6,42,0.00,CLR,SCT,0.00,WeatherDisplay:10.37,2013-07-13 08:10:00,
2013-07-13 01:15:00,53.4,31.5,30.05,North,0,4.6,4.6,43,0.00,CLR,SCT,0.00,WeatherDisplay:10.37,2013-07-13 08:15:00,
2013-07-13 01:20:00,53.4,31.5,30.05,North,0,5.8,5.8,43,0.00,CLR,SCT,0.00,WeatherDisplay:10.37,2013-07-13 08:20:00,
2013-07-13 01:25:00,53.2,31.3,30.05,North,0,4.0,4.0,43,0.00,CLR,SCT,0.00,WeatherDisplay:10.37,2013-07-13 08:25:00,
2013-07-13 01:30:00,53.1,31.1,30.05,North,0,4.0,4.0,43,0.00,CLR,SCT,0.00,WeatherDisplay:10.37,2013-07-13 08:30:00,
2013-07-13 01:35:00,52.9,31.0,30.05,North,0,5.8,5.8,43,0.00,CLR,SCT,0.00,WeatherDisplay:10.37,2013-07-13 08:35:00,
2013-07-13 01:40:00,52.9,31.0,30.05,North,0,5.8,5.8,43,0.00,CLR,SCT,0.00,WeatherDisplay:10.37,2013-07-13 08:40:00,
2013-07-13 01:45:00,52.9,31.0,30.05,North,0,5.8,5.8,43,0.00,CLR,SCT,0.00,WeatherDisplay:10.37,2013-07-13 08:45:00,
2013-07-13 01:50:00,52.7,31.4,30.05,North,0,5.8,5.8,44,0.00,CLR,SCT,0.00,WeatherDisplay:10.37,2013-07-13 08:50:00,
2013-07-13 01:56:00,52.5,31.2,30.05,North,0,3.5,3.5,44,0.00,CLR,SCT,0.00,WeatherDisplay:10.37,2013-07-13 08:56:00,
2013-07-13 02:01:00,52.2,30.9,30.05,North,0,3.5,3.5,44,0.00,CLR,SCT,0.00,WeatherDisplay:10.37,2013-07-13 09:01:00,
2013-07-13 02:06:00,51.6,31.5,30.05,North,0,0.0,0.0,46,0.00,CLR,SCT,0.00,WeatherDisplay:10.37,2013-07-13 09:06:00,
2013-07-13 02:11:00,51.1,31.5,30.05,North,0,3.5,3.5,47,0.00,CLR,SCT,0.00,WeatherDisplay:10.37,2013-07-13 09:11:00,
2013-07-13 02:16:00,50.5,32.1,30.05,North,0,3.5,4.0,49,0.00,CLR,SCT,0.00,WeatherDisplay:10.37,2013-07-13 09:16:00,
2013-07-13 02:21:00,50.5,32.1,30.05,North,0,5.8,5.8,49,0.00,CLR,SCT,0.00,WeatherDisplay:10.37,2013-07-13 09:21:00,
2013-07-13 02:26:00,50.7,32.2,30.05,North,0,4.6,4.6,49,0.00,CLR,SCT,0.00,WeatherDisplay:10.37,2013-07-13 09:26:00,
2013-07-13 02:32:00,50.9,31.9,30.05,North,0,3.5,4.0,48,0.00,CLR,SCT,0.00,WeatherDisplay:10.37,2013-07-13 09:32:00,
2013-07-13 02:37:00,50.9,32.4,30.05,North,0,5.8,5.8,49,0.00,CLR,SCT,0.00,WeatherDisplay:10.37,2013-07-13 09:37:00,
2013-07-13 02:42:00,50.9,31.9,30.05,North,0,5.8,5.8,48,0.00,CLR,SCT,0.00,WeatherDisplay:10.37,2013-07-13 09:42:00,
2013-07-13 02:47:00,50.9,31.9,30.05,North,0,5.8,5.8,48,0.00,CLR,SCT,0.00,WeatherDisplay:10.37,2013-07-13 09:47:00,
2013-07-13 02:52:00,50.9,31.9,30.05,North,0,5.8,5.8,48,0.00,CLR,SCT,0.00,WeatherDisplay:10.37,2013-07-13 09:52:00,
2013-07-13 02:57:00,50.9,31.9,30.05,North,0,4.6,4.6,48,0.00,CLR,SCT,0.00,WeatherDisplay:10.37,2013-07-13 09:57:00,
2013-07-13 03:02:00,50.7,31.7,30.05,North,0,4.9,4.9,48,0.00,CLR,SCT,0.00,WeatherDisplay:10.37,2013-07-13 10:02:00,
2013-07-13 03:07:00,50.5,31.6,30.05,North,0,5.8,5.8,48,0.00,CLR,SCT,0.00,WeatherDisplay:10.37,2013-07-13 10:07:00,
2013-07-13 03:12:00,50.5,31.6,30.05,North,0,4.6,4.6,48,0.00,CLR,SCT,0.00,WeatherDisplay:10.37,2013-07-13 10:12:00,
2013-07-13 03:17:00,50.2,31.2,30.05,North,0,4.0,4.0,48,0.00,CLR,SCT,0.00,WeatherDisplay:10.37,2013-07-13 10:17:00,
2013-07-13 03:23:00,49.5,30.6,30.05,North,0,3.5,3.5,48,0.00,CLR,SCT,0.00,WeatherDisplay:10.37,2013-07-13 10:23:00,
2013-07-13 03:28:00,48.7,29.9,30.05,North,0,0.0,0.0,48,0.00,CLR,SCT,0.00,WeatherDisplay:10.37,2013-07-13 10:28:00,
2013-07-13 03:33:00,48.4,30.1,30.05,North,0,0.0,0.0,49,0.00,CLR,SCT,0.00,WeatherDisplay:10.37,2013-07-13 10:33:00,
2013-07-13 03:38:00,48.2,29.9,30.05,North,0,0.0,0.0,49,0.00,CLR,SCT,0.00,WeatherDisplay:10.37,2013-07-13 10:38:00,
2013-07-13 03:43:00,47.7,30.4,30.05,North,0,0.0,0.0,51,0.00,CLR,SCT,0.00,WeatherDisplay:10.37,2013-07-13 10:43:00,
2013-07-13 03:48:00,47.3,30.1,30.05,North,0,3.5,3.5,51,0.00,CLR,SCT,0.00,WeatherDisplay:10.37,2013-07-13 10:48:00,
2013-07-13 03:53:00,46.9,30.2,30.05,ESE,114,4.0,4.0,52,0.00,CLR,SCT,0.00,WeatherDisplay:10.37,2013-07-13 10:53:00,
2013-07-13 03:58:00,46.6,29.9,30.05,ESE,114,4.6,4.6,52,0.00,CLR,SCT,0.00,WeatherDisplay:10.37,2013-07-13 10:58:00,
2013-07-13 04:03:00,46.4,29.7,30.05,ESE,114,3.5,3.6,52,0.00,CLR,SCT,0.00,WeatherDisplay:10.37,2013-07-13 11:03:00,
2013-07-13 04:09:00,46.2,30.0,30.05,ESE,114,3.5,3.6,53,0.00,CLR,SCT,0.00,WeatherDisplay:10.37,2013-07-13 11:09:00,
2013-07-13 04:14:00,46.2,30.0,30.05,ESE,114,2.0,4.0,53,0.00,CLR,SCT,0.00,WeatherDisplay:10.37,2013-07-13 11:14:00,
2013-07-13 04:19:00,46.2,30.0,30.05,ESE,114,0.0,0.0,53,0.00,CLR,SCT,0.00,WeatherDisplay:10.37,2013-07-13 11:19:00,
2013-07-13 04:24:00,46.0,29.8,30.05,ESE,114,2.7,2.7,53,0.00,CLR,SCT,0.00,WeatherDisplay:10.37,2013-07-13 11:24:00,
2013-07-13 04:29:00,46.0,29.4,30.05,ESE,114,0.0,0.0,52,0.00,CLR,SCT,0.00,WeatherDisplay:10.37,2013-07-13 11:29:00,
2013-07-13 04:34:00,45.9,29.2,30.05,ESE,114,0.0,0.0,52,0.00,CLR,SCT,0.00,WeatherDisplay:10.37,2013-07-13 11:34:00,
2013-07-13 04:40:00,45.5,28.4,30.05,ESE,114,0.0,0.0,51,0.00,CLR,SCT,0.00,WeatherDisplay:10.37,2013-07-13 11:40:00,
2013-07-13 04:45:00,45.1,28.5,30.05,ESE,114,0.0,0.0,52,0.00,CLR,SCT,0.00,WeatherDisplay:10.37,2013-07-13 11:45:00,
2013-07-13 04:50:00,44.6,28.0,30.05,ESE,114,0.0,0.0,52,0.00,CLR,SCT,0.00,WeatherDisplay:10.37,2013-07-13 11:50:00,
2013-07-13 04:55:00,44.1,28.5,30.08,ESE,114,0.0,0.0,54,0.00,CLR,SCT,0.00,WeatherDisplay:10.37,2013-07-13 11:55:00,
2013-07-13 05:00:00,43.9,28.7,30.08,ESE,114,0.0,0.0,55,0.00,CLR,SCT,0.00,WeatherDisplay:10.37,2013-07-13 12:00:00,
2013-07-13 05:05:00,43.5,28.4,30.08,ESE,114,2.3,0.0,55,0.00,CLR,SCT,0.00,WeatherDisplay:10.37,2013-07-13 12:05:00,
2013-07-13 05:10:00,43.3,28.7,30.08,South,179,0.0,0.0,56,0.00,CLR,SCT,0.00,WeatherDisplay:10.37,2013-07-13 12:10:00,
2013-07-13 05:15:00,43.3,30.8,30.08,SW,232,5.8,5.8,61,0.00,CLR,SCT,0.00,WeatherDisplay:10.37,2013-07-13 12:15:00,
2013-07-13 05:21:00,43.2,30.6,30.08,SW,232,0.0,0.0,61,0.00,CLR,SCT,0.00,WeatherDisplay:10.37,2013-07-13 12:21:00,
2013-07-13 05:26:00,43.2,31.0,30.08,South,182,5.8,5.8,62,0.00,CLR,SCT,0.00,WeatherDisplay:10.37,2013-07-13 12:26:00,
2013-07-13 05:31:00,43.0,30.0,30.08,SSW,208,4.9,4.9,60,0.00,CLR,SCT,0.00,WeatherDisplay:10.37,2013-07-13 12:31:00,
2013-07-13 05:36:00,43.0,30.0,30.08,SSW,206,3.5,3.5,60,0.00,CLR,SCT,0.00,WeatherDisplay:10.37,2013-07-13 12:36:00,
2013-07-13 05:41:00,42.8,29.9,30.08,SSW,206,3.5,3.5,60,0.00,CLR,SCT,0.00,WeatherDisplay:10.37,2013-07-13 12:41:00,
2013-07-13 05:46:00,42.8,30.3,30.08,SSW,206,2.7,2.7,61,0.00,CLR,SCT,0.00,WeatherDisplay:10.37,2013-07-13 12:46:00,
2013-07-13 05:51:00,42.8,29.9,30.08,SSW,206,3.5,3.5,60,0.00,CLR,SCT,0.00,WeatherDisplay:10.37,2013-07-13 12:51:00,
2013-07-13 05:57:00,42.8,29.9,30.08,SSW,206,2.3,0.0,60,0.00,CLR,SCT,0.00,WeatherDisplay:10.37,2013-07-13 12:57:00,
2013-07-13 06:02:00,42.6,29.3,30.08,SSW,206,0.0,0.0,59,0.00,CLR,SCT,0.00,WeatherDisplay:10.37,2013-07-13 13:02:00,
2013-07-13 06:07:00,42.6,29.7,30.08,SSW,206,0.0,0.0,60,0.00,CLR,SCT,0.00,WeatherDisplay:10.37,2013-07-13 13:07:00,
2013-07-13 06:12:00,42.4,29.5,30.08,SSW,206,0.0,0.0,60,0.00,CLR,SCT,0.00,WeatherDisplay:10.37,2013-07-13 13:12:00,
2013-07-13 06:18:00,42.4,30.3,30.08,SSW,206,0.0,0.0,62,0.00,CLR,SCT,0.00,WeatherDisplay:10.37,2013-07-13 13:18:00,
2013-07-13 06:23:00,42.8,30.7,30.08,SSW,206,0.0,0.0,62,0.00,CLR,SCT,0.00,WeatherDisplay:10.37,2013-07-13 13:23:00,
2013-07-13 06:28:00,43.0,30.8,30.08,SSW,206,0.0,0.0,62,0.00,CLR,SCT,0.00,WeatherDisplay:10.37,2013-07-13 13:28:00,
2013-07-13 06:33:00,43.5,31.0,30.08,SSW,206,2.3,2.3,61,0.00,CLR,SCT,0.00,WeatherDisplay:10.37,2013-07-13 13:33:00,
2013-07-13 06:38:00,44.1,31.1,30.08,SSW,206,0.0,0.0,60,0.00,CLR,SCT,0.00,WeatherDisplay:10.37,2013-07-13 13:38:00,
2013-07-13 06:44:00,44.4,31.0,30.08,SSW,206,0.0,0.0,59,0.00,CLR,SCT,0.00,WeatherDisplay:10.37,2013-07-13 13:44:00,
2013-07-13 06:49:00,44.8,30.0,30.08,SSW,206,2.3,0.0,56,0.00,CLR,SCT,0.00,WeatherDisplay:10.37,2013-07-13 13:49:00,
2013-07-13 06:54:00,45.3,30.5,30.11,SSW,206,0.0,0.0,56,0.00,CLR,SCT,0.00,WeatherDisplay:10.37,2013-07-13 13:54:00,
2013-07-13 06:59:00,45.7,30.4,30.11,SSW,206,0.0,0.0,55,0.00,CLR,SCT,0.00,WeatherDisplay:10.37,2013-07-13 13:59:00,
2013-07-13 07:04:00,46.2,30.5,30.11,SSW,206,0.0,0.0,54,0.00,CLR,SCT,0.00,WeatherDisplay:10.37,2013-07-13 14:04:00,
2013-07-13 07:09:00,46.8,29.6,30.11,SSW,206,0.0,0.0,51,0.00,CLR,SCT,0.00,WeatherDisplay:10.37,2013-07-13 14:09:00,
2013-07-13 07:14:00,47.5,30.2,30.11,SSW,206,0.0,0.0,51,0.00,CLR,SCT,0.00,WeatherDisplay:10.37,2013-07-13 14:14:00,
2013-07-13 07:20:00,48.2,29.9,30.11,SSW,206,0.0,0.0,49,0.00,CLR,SCT,0.00,WeatherDisplay:10.37,2013-07-13 14:20:00,
2013-07-13 07:25:00,48.9,30.1,30.11,SSW,209,0.0,0.0,48,0.00,CLR,SCT,0.00,WeatherDisplay:10.37,2013-07-13 14:25:00,
2013-07-13 07:30:00,49.6,30.2,30.11,SSW,208,0.0,0.0,47,0.00,CLR,SCT,0.00,WeatherDisplay:10.37,2013-07-13 14:30:00,
2013-07-13 07:35:00,50.2,30.7,30.11,SSW,208,0.0,0.0,47,0.00,CLR,SCT,0.00,WeatherDisplay:10.37,2013-07-13 14:35:00,
2013-07-13 07:40:00,50.9,30.8,30.11,SSW,213,0.0,0.0,46,0.00,CLR,SCT,0.00,WeatherDisplay:10.37,2013-07-13 14:40:00,
2013-07-13 07:46:00,51.8,31.1,30.11,NNE,12,3.5,3.5,45,0.00,CLR,SCT,0.00,WeatherDisplay:10.37,2013-07-13 14:46:00,
2013-07-13 07:51:00,52.9,31.5,30.11,North,0,3.1,0.0,44,0.00,CLR,SCT,0.00,WeatherDisplay:10.37,2013-07-13 14:51:00,
2013-07-13 07:56:00,53.8,31.8,30.11,North,0,3.5,3.5,43,0.00,CLR,SCT,0.00,WeatherDisplay:10.37,2013-07-13 14:56:00,
2013-07-13 08:01:00,55.0,31.7,30.11,NE,46,3.5,0.0,41,0.00,CLR,SCT,0.00,WeatherDisplay:10.37,2013-07-13 15:01:00,
2013-07-13 08:06:00,56.3,31.6,30.11,NNE,17,3.5,3.5,39,0.00,CLR,SCT,0.00,WeatherDisplay:10.37,2013-07-13 15:06:00,
2013-07-13 08:11:00,56.8,32.1,30.11,NNE,27,3.6,3.6,39,0.00,CLR,SCT,0.00,WeatherDisplay:10.37,2013-07-13 15:11:00,
2013-07-13 08:16:00,57.7,32.3,30.11,NNE,30,3.5,0.0,38,0.00,CLR,SCT,0.00,WeatherDisplay:10.37,2013-07-13 15:16:00,
2013-07-13 08:22:00,58.5,32.9,30.11,NE,48,3.5,3.5,38,0.00,CLR,SCT,0.00,WeatherDisplay:10.37,2013-07-13 15:22:00,
2013-07-13 08:27:00,59.2,32.9,30.11,NE,51,3.5,3.5,37,0.00,CLR,SCT,0.00,WeatherDisplay:10.37,2013-07-13 15:27:00,
2013-07-13 08:32:00,59.7,33.4,30.11,ENE,78,0.0,0.0,37,0.00,CLR,SCT,0.00,WeatherDisplay:10.37,2013-07-13 15:32:00,
2013-07-13 08:37:00,60.6,33.5,30.11,NE,49,4.6,0.0,36,0.00,CLR,SCT,0.00,WeatherDisplay:10.37,2013-07-13 15:37:00,
2013-07-13 08:42:00,61.3,34.1,30.11,NE,49,2.3,0.0,36,0.00,CLR,SCT,0.00,WeatherDisplay:10.37,2013-07-13 15:42:00,
2013-07-13 08:47:00,61.9,34.6,30.11,North,0,3.5,3.5,36,0.00,CLR,SCT,0.00,WeatherDisplay:10.37,2013-07-13 15:47:00,
2013-07-13 08:52:00,62.8,34.7,30.11,North,0,4.0,4.0,35,0.00,CLR,SCT,0.00,WeatherDisplay:10.37,2013-07-13 15:52:00,
2013-07-13 08:57:00,63.5,35.3,30.11,North,0,5.8,0.0,35,0.00,CLR,SCT,0.00,WeatherDisplay:10.37,2013-07-13 15:57:00,
2013-07-13 09:02:00,64.4,35.4,30.11,North,0,4.6,4.6,34,0.00,CLR,SCT,0.00,WeatherDisplay:10.37,2013-07-13 16:02:00,
2013-07-13 09:07:00,64.8,35.7,30.11,North,0,3.5,3.5,34,0.00,CLR,SCT,0.00,WeatherDisplay:10.37,2013-07-13 16:07:00,
2013-07-13 09:12:00,65.5,36.4,30.11,North,0,5.4,5.4,34,0.00,CLR,SCT,0.00,WeatherDisplay:10.37,2013-07-13 16:12:00,
2013-07-13 09:18:00,66.0,36.8,30.11,WSW,247,2.3,0.0,34,0.00,CLR,SCT,0.00,WeatherDisplay:10.37,2013-07-13 16:18:00,
2013-07-13 09:23:00,66.6,37.3,30.11,North,0,3.5,3.5,34,0.00,CLR,SCT,0.00,WeatherDisplay:10.37,2013-07-13 16:23:00,
2013-07-13 09:28:00,67.5,38.1,30.11,North,0,5.8,5.8,34,0.00,CLR,SCT,0.00,WeatherDisplay:10.37,2013-07-13 16:28:00,
2013-07-13 09:33:00,68.0,37.8,30.11,North,0,4.6,4.6,33,0.00,CLR,SCT,0.00,WeatherDisplay:10.37,2013-07-13 16:33:00,
2013-07-13 09:38:00,68.7,38.4,30.11,West,259,3.5,3.5,33,0.00,CLR,SCT,0.00,WeatherDisplay:10.37,2013-07-13 16:38:00,
2013-07-13 09:43:00,69.1,38.8,30.11,West,274,3.5,3.5,33,0.00,CLR,SCT,0.00,WeatherDisplay:10.37,2013-07-13 16:43:00,
2013-07-13 09:49:00,69.6,39.2,30.11,WSW,240,4.6,4.6,33,0.00,CLR,SCT,0.00,WeatherDisplay:10.37,2013-07-13 16:49:00,
2013-07-13 09:54:00,70.2,38.9,30.11,North,0,5.8,5.8,32,0.00,CLR,SCT,0.00,WeatherDisplay:10.37,2013-07-13 16:54:00,
2013-07-13 09:59:00,70.5,39.2,30.11,North,0,5.8,5.8,32,0.00,CLR,SCT,0.00,WeatherDisplay:10.37,2013-07-13 16:59:00,
2013-07-13 10:04:00,70.5,39.2,30.11,North,0,4.6,4.6,32,0.00,CLR,SCT,0.00,WeatherDisplay:10.37,2013-07-13 17:04:00,
2013-07-13 10:09:00,70.5,39.2,30.11,SE,135,3.5,3.5,32,0.00,CLR,SCT,0.00,WeatherDisplay:10.37,2013-07-13 17:09:00,
2013-07-13 10:14:00,71.1,39.7,30.11,North,0,5.8,5.8,32,0.00,CLR,SCT,0.00,WeatherDisplay:10.37,2013-07-13 17:14:00,
2013-07-13 10:19:00,71.8,40.3,30.11,WSW,246,3.5,3.6,32,0.00,CLR,SCT,0.00,WeatherDisplay:10.37,2013-07-13 17:19:00,
2013-07-13 10:25:00,72.3,40.8,30.08,WNW,287,3.5,3.5,32,0.00,CLR,SCT,0.00,WeatherDisplay:10.37,2013-07-13 17:25:00,
2013-07-13 10:30:00,73.2,41.6,30.08,NNE,13,3.5,3.5,32,0.00,CLR,SCT,0.00,WeatherDisplay:10.37,2013-07-13 17:30:00,
2013-07-13 10:35:00,73.9,41.4,30.08,WSW,254,5.8,5.8,31,0.00,CLR,SCT,0.00,WeatherDisplay:10.37,2013-07-13 17:35:00,
2013-07-13 10:40:00,73.8,42.0,30.08,WNW,287,5.8,5.8,32,0.00,CLR,SCT,0.00,WeatherDisplay:10.37,2013-07-13 17:40:00,
2013-07-13 10:45:00,74.5,41.9,30.08,SW,226,3.5,3.5,31,0.00,CLR,SCT,0.00,WeatherDisplay:10.37,2013-07-13 17:45:00,
2013-07-13 10:50:00,74.5,41.9,30.08,WNW,291,2.3,2.3,31,0.00,CLR,SCT,0.00,WeatherDisplay:10.37,2013-07-13 17:50:00,
2013-07-13 10:55:00,75.2,42.5,30.08,North,0,4.6,4.6,31,0.00,CLR,SCT,0.00,WeatherDisplay:10.37,2013-07-13 17:55:00,
2013-07-13 11:00:00,75.9,43.1,30.08,North,0,5.8,5.8,31,0.00,CLR,SCT,0.00,WeatherDisplay:10.37,2013-07-13 18:00:00,
2013-07-13 11:05:00,76.8,43.9,30.08,West,277,3.5,3.5,31,0.00,CLR,SCT,0.00,WeatherDisplay:10.37,2013-07-13 18:05:00,
2013-07-13 11:10:00,76.6,43.7,30.08,North,0,5.8,5.8,31,0.00,CLR,SCT,0.00,WeatherDisplay:10.37,2013-07-13 18:10:00,
2013-07-13 11:16:00,77.2,44.2,30.08,North,0,3.5,3.5,31,0.00,CLR,SCT,0.00,WeatherDisplay:10.37,2013-07-13 18:16:00,
2013-07-13 11:21:00,77.9,44.8,30.08,WSW,256,8.1,8.1,31,0.00,CLR,SCT,0.00,WeatherDisplay:10.37,2013-07-13 18:21:00,
2013-07-13 11:26:00,78.1,45.0,30.08,North,0,4.6,4.6,31,0.00,CLR,SCT,0.00,WeatherDisplay:10.37,2013-07-13 18:26:00,
2013-07-13 11:31:00,78.4,45.3,30.08,North,0,8.1,8.1,31,0.00,CLR,SCT,0.00,WeatherDisplay:10.37,2013-07-13 18:31:00,
2013-07-13 11:36:00,78.8,44.7,30.08,ENE,68,3.5,3.6,30,0.00,CLR,SCT,0.00,WeatherDisplay:10.37,2013-07-13 18:36:00,
2013-07-13 11:41:00,79.3,45.2,30.08,NNE,19,8.1,8.1,30,0.00,CLR,SCT,0.00,WeatherDisplay:10.37,2013-07-13 18:41:00,
2013-07-13 11:47:00,79.7,45.5,30.08,ENE,73,2.3,0.0,30,0.00,CLR,SCT,0.00,WeatherDisplay:10.37,2013-07-13 18:47:00,
2013-07-13 11:52:00,79.9,45.7,30.08,East,91,6.3,6.3,30,0.00,CLR,SCT,0.00,WeatherDisplay:10.37,2013-07-13 18:52:00,
2013-07-13 11:57:00,80.1,45.8,30.08,SE,141,5.8,5.8,30,0.00,CLR,SCT,0.00,WeatherDisplay:10.37,2013-07-13 18:57:00,
2013-07-13 12:02:00,79.0,44.9,30.08,ENE,59,11.5,11.5,30,0.00,CLR,SCT,0.00,WeatherDisplay:10.37,2013-07-13 19:02:00,
2013-07-13 12:07:00,78.8,44.7,30.05,ESE,120,9.2,9.2,30,0.00,CLR,SCT,0.00,WeatherDisplay:10.37,2013-07-13 19:07:00,
2013-07-13 12:13:00,79.7,45.5,30.05,NNE,18,9.2,9.2,30,0.00,CLR,SCT,0.00,WeatherDisplay:10.37,2013-07-13 19:13:00,
2013-07-13 12:18:00,79.7,45.5,30.05,West,276,4.6,4.6,30,0.00,CLR,SCT,0.00,WeatherDisplay:10.37,2013-07-13 19:18:00,
2013-07-13 12:23:00,80.2,46.0,30.08,ENE,60,6.9,6.9,30,0.00,CLR,SCT,0.00,WeatherDisplay:10.37,2013-07-13 19:23:00,
2013-07-13 12:28:00,80.8,46.4,30.08,North,0,3.5,3.5,30,0.00,CLR,SCT,0.00,WeatherDisplay:10.37,2013-07-13 19:28:00,
2013-07-13 12:33:00,81.5,47.1,30.08,NE,39,8.1,8.1,30,0.00,CLR,SCT,0.00,WeatherDisplay:10.37,2013-07-13 19:33:00,
2013-07-13 12:38:00,80.6,46.3,30.08,NE,35,5.8,0.0,30,0.00,CLR,SCT,0.00,WeatherDisplay:10.37,2013-07-13 19:38:00,
2013-07-13 12:43:00,81.0,46.6,30.08,North,0,5.8,0.0,30,0.00,CLR,SCT,0.00,WeatherDisplay:10.37,2013-07-13 19:43:00,
2013-07-13 12:49:00,81.9,47.4,30.08,NE,49,8.1,8.1,30,0.00,CLR,SCT,0.00,WeatherDisplay:10.37,2013-07-13 19:49:00,
2013-07-13 12:54:00,82.0,47.5,30.08,NE,45,5.8,5.8,30,0.00,CLR,SCT,0.00,WeatherDisplay:10.37,2013-07-13 19:54:00,
2013-07-13 12:59:00,81.7,47.2,30.08,North,0,5.8,5.8,30,0.00,CLR,SCT,0.00,WeatherDisplay:10.37,2013-07-13 19:59:00,
2013-07-13 13:05:00,81.9,47.4,30.08,North,0,5.8,5.8,30,0.00,CLR,SCT,0.00,WeatherDisplay:10.37,2013-07-13 20:05:00,
2013-07-13 13:10:00,81.5,47.1,30.08,NNE,17,5.8,5.8,30,0.00,CLR,SCT,0.00,WeatherDisplay:10.37,2013-07-13 20:10:00,
2013-07-13 13:15:00,81.7,47.2,30.08,North,0,4.6,4.6,30,0.00,CLR,SCT,0.00,WeatherDisplay:10.37,2013-07-13 20:15:00,
2013-07-13 13:20:00,82.0,47.5,30.08,ENE,74,5.8,5.8,30,0.00,CLR,SCT,0.00,WeatherDisplay:10.37,2013-07-13 20:20:00,
2013-07-13 13:25:00,82.2,47.7,30.05,East,95,3.5,0.0,30,0.00,CLR,SCT,0.00,WeatherDisplay:10.37,2013-07-13 20:25:00,
2013-07-13 13:30:00,82.0,47.5,30.05,NNE,15,3.6,3.6,30,0.00,CLR,SCT,0.00,WeatherDisplay:10.37,2013-07-13 20:30:00,
2013-07-13 13:35:00,82.0,47.5,30.05,North,0,8.1,8.1,30,0.00,CLR,SCT,0.00,WeatherDisplay:10.37,2013-07-13 20:35:00,
2013-07-13 13:41:00,81.9,47.4,30.05,East,79,5.8,5.8,30,0.00,CLR,SCT,0.00,WeatherDisplay:10.37,2013-07-13 20:41:00,
2013-07-13 13:46:00,82.2,47.7,30.05,North,0,4.6,4.6,30,0.00,CLR,SCT,0.00,WeatherDisplay:10.37,2013-07-13 20:46:00,
2013-07-13 13:51:00,82.6,47.1,30.05,NE,40,8.1,8.1,29,0.00,CLR,SCT,0.00,WeatherDisplay:10.37,2013-07-13 20:51:00,
2013-07-13 13:56:00,82.8,47.3,30.05,North,0,12.7,12.7,29,0.00,CLR,SCT,0.00,WeatherDisplay:10.37,2013-07-13 20:56:00,
2013-07-13 14:01:00,82.4,46.9,30.05,NNE,23,12.7,12.7,29,0.00,CLR,SCT,0.00,WeatherDisplay:10.37,2013-07-13 21:01:00,
2013-07-13 14:07:00,82.6,47.1,30.05,NNE,25,8.1,8.1,29,0.00,CLR,SCT,0.00,WeatherDisplay:10.37,2013-07-13 21:07:00,
2013-07-13 14:12:00,82.9,47.4,30.05,NE,36,8.1,8.1,29,0.00,CLR,SCT,0.00,WeatherDisplay:10.37,2013-07-13 21:12:00,
2013-07-13 14:17:00,83.5,47.9,30.05,East,92,8.1,8.1,29,0.00,CLR,SCT,0.00,WeatherDisplay:10.37,2013-07-13 21:17:00,
2013-07-13 14:22:00,83.8,48.2,30.05,North,0,5.8,6.3,29,0.00,CLR,SCT,0.00,WeatherDisplay:10.37,2013-07-13 21:22:00,
2013-07-13 14:28:00,83.7,48.0,30.05,North,0,5.8,5.8,29,0.00,CLR,SCT,0.00,WeatherDisplay:10.37,2013-07-13 21:28:00,
2013-07-13 14:33:00,83.8,48.2,30.05,North,0,10.5,10.5,29,0.00,CLR,SCT,0.00,WeatherDisplay:10.37,2013-07-13 21:33:00,
2013-07-13 14:38:00,84.4,48.6,30.05,NE,41,8.1,8.1,29,0.00,CLR,SCT,0.00,WeatherDisplay:10.37,2013-07-13 21:38:00,
2013-07-13 14:43:00,84.7,48.9,30.05,NNE,29,6.0,13.0,29,0.00,CLR,SCT,0.00,WeatherDisplay:10.37,2013-07-13 21:43:00,
2013-07-13 14:49:00,84.4,48.6,30.05,North,0,13.2,13.2,29,0.00,CLR,SCT,0.00,WeatherDisplay:10.37,2013-07-13 21:49:00,
2013-07-13 14:54:00,84.2,48.5,30.05,North,0,5.8,5.8,29,0.00,CLR,SCT,0.00,WeatherDisplay:10.37,2013-07-13 21:54:00,
2013-07-13 14:59:00,84.6,48.8,30.05,North,0,3.6,3.6,29,0.00,CLR,SCT,0.00,WeatherDisplay:10.37,2013-07-13 21:59:00,
2013-07-13 15:04:00,85.5,49.6,30.05,North,0,5.8,5.8,29,0.00,CLR,SCT,0.00,WeatherDisplay:10.37,2013-07-13 22:04:00,
2013-07-13 15:09:00,85.5,49.6,30.02,North,0,9.2,9.2,29,0.00,CLR,SCT,0.00,WeatherDisplay:10.37,2013-07-13 22:09:00,
2013-07-13 15:14:00,85.3,49.4,30.02,NNE,32,11.5,11.5,29,0.00,CLR,SCT,0.00,WeatherDisplay:10.37,2013-07-13 22:14:00,
2013-07-13 15:19:00,85.3,49.4,30.02,North,0,8.1,8.1,29,0.00,CLR,SCT,0.00,WeatherDisplay:10.37,2013-07-13 22:19:00,
2013-07-13 15:24:00,85.5,49.6,30.02,West,266,5.8,5.8,29,0.00,CLR,SCT,0.00,WeatherDisplay:10.37,2013-07-13 22:24:00,
2013-07-13 15:30:00,85.6,49.7,30.02,North,0,10.4,10.4,29,0.00,CLR,SCT,0.00,WeatherDisplay:10.37,2013-07-13 22:30:00,
2013-07-13 15:35:00,85.6,49.7,30.02,North,0,10.4,10.4,29,0.00,CLR,SCT,0.00,WeatherDisplay:10.37,2013-07-13 22:35:00,
2013-07-13 15:40:00,85.5,49.6,30.02,North,0,8.1,8.1,29,0.00,CLR,SCT,0.00,WeatherDisplay:10.37,2013-07-13 22:40:00,
2013-07-13 15:45:00,85.1,49.3,30.02,North,0,11.5,11.5,29,0.00,CLR,SCT,0.00,WeatherDisplay:10.37,2013-07-13 22:45:00,
2013-07-13 15:50:00,85.3,49.4,30.02,North,0,5.8,5.8,29,0.00,CLR,SCT,0.00,WeatherDisplay:10.37,2013-07-13 22:50:00,
2013-07-13 15:56:00,85.1,49.3,30.02,North,0,8.1,8.1,29,0.00,CLR,SCT,0.00,WeatherDisplay:10.37,2013-07-13 22:56:00,
2013-07-13 16:01:00,85.6,49.7,30.02,North,0,12.7,12.7,29,0.00,CLR,SCT,0.00,WeatherDisplay:10.37,2013-07-13 23:01:00,
2013-07-13 16:06:00,85.5,49.6,30.02,WNW,282,8.1,8.1,29,0.00,CLR,SCT,0.00,WeatherDisplay:10.37,2013-07-13 23:06:00,
2013-07-13 16:11:00,85.8,49.9,30.02,North,0,9.2,9.2,29,0.00,CLR,SCT,0.00,WeatherDisplay:10.37,2013-07-13 23:11:00,
2013-07-13 16:16:00,86.0,50.0,30.02,North,0,9.2,9.2,29,0.00,CLR,SCT,0.00,WeatherDisplay:10.37,2013-07-13 23:16:00,
2013-07-13 16:21:00,86.4,50.3,30.02,North,0,9.2,9.2,29,0.00,CLR,SCT,0.00,WeatherDisplay:10.37,2013-07-13 23:21:00,
2013-07-13 16:27:00,86.0,50.0,30.02,North,0,12.7,12.7,29,0.00,CLR,SCT,0.00,WeatherDisplay:10.37,2013-07-13 23:27:00,
2013-07-13 16:32:00,85.6,49.7,30.02,North,0,10.4,10.4,29,0.00,CLR,SCT,0.00,WeatherDisplay:10.37,2013-07-13 23:32:00,
2013-07-13 16:37:00,85.3,49.4,30.02,North,0,11.5,11.5,29,0.00,CLR,SCT,0.00,WeatherDisplay:10.37,2013-07-13 23:37:00,
2013-07-13 16:42:00,85.1,49.3,30.02,North,357,3.5,4.0,29,0.00,CLR,SCT,0.00,WeatherDisplay:10.37,2013-07-13 23:42:00,
2013-07-13 16:47:00,85.1,49.3,30.02,North,0,15.0,15.0,29,0.00,CLR,SCT,0.00,WeatherDisplay:10.37,2013-07-13 23:47:00,
2013-07-13 16:52:00,84.9,49.1,29.99,North,0,11.5,11.5,29,0.00,CLR,SCT,0.00,WeatherDisplay:10.37,2013-07-13 23:52:00,
2013-07-13 16:57:00,84.9,49.1,29.99,North,0,9.2,9.2,29,0.00,CLR,SCT,0.00,WeatherDisplay:10.37,2013-07-13 23:57:00,
2013-07-13 17:02:00,84.9,49.1,29.99,North,0,10.4,10.4,29,0.00,CLR,SCT,0.00,WeatherDisplay:10.37,2013-07-14 00:02:00,
2013-07-13 17:07:00,84.2,48.5,29.99,North,0,12.7,12.7,29,0.00,CLR,SCT,0.00,WeatherDisplay:10.37,2013-07-14 00:07:00,
2013-07-13 17:12:00,83.5,47.9,29.99,North,0,12.7,12.7,29,0.00,CLR,SCT,0.00,WeatherDisplay:10.37,2013-07-14 00:12:00,
2013-07-13 17:17:00,83.3,47.7,29.99,North,0,8.1,8.1,29,0.00,CLR,SCT,0.00,WeatherDisplay:10.37,2013-07-14 00:17:00,
2013-07-13 17:22:00,83.7,48.0,29.99,North,0,12.7,12.7,29,0.00,CLR,SCT,0.00,WeatherDisplay:10.37,2013-07-14 00:22:00,
2013-07-13 17:27:00,83.1,47.6,29.99,North,0,10.4,10.4,29,0.00,CLR,SCT,0.00,WeatherDisplay:10.37,2013-07-14 00:27:00,
2013-07-13 17:32:00,83.1,47.6,29.99,North,0,12.7,12.7,29,0.00,CLR,SCT,0.00,WeatherDisplay:10.37,2013-07-14 00:32:00,
2013-07-13 17:37:00,83.1,47.6,29.99,North,0,8.1,8.1,29,0.00,CLR,SCT,0.00,WeatherDisplay:10.37,2013-07-14 00:37:00,
2013-07-13 17:42:00,82.9,47.4,29.99,North,10,16.1,16.1,29,0.00,CLR,SCT,0.00,WeatherDisplay:10.37,2013-07-14 00:42:00,
2013-07-13 17:47:00,82.2,47.7,29.99,NE,37,12.7,12.7,30,0.00,CLR,SCT,0.00,WeatherDisplay:10.37,2013-07-14 00:47:00,
2013-07-13 17:53:00,82.2,47.7,29.99,North,0,11.5,11.5,30,0.00,CLR,SCT,0.00,WeatherDisplay:10.37,2013-07-14 00:53:00,
2013-07-13 17:58:00,82.2,47.7,29.99,NNE,25,13.8,13.8,30,0.00,CLR,SCT,0.00,WeatherDisplay:10.37,2013-07-14 00:58:00,
2013-07-13 18:03:00,82.2,47.7,29.99,North,0,10.4,10.4,30,0.00,CLR,SCT,0.00,WeatherDisplay:10.37,2013-07-14 01:03:00,
2013-07-13 18:08:00,82.2,47.7,29.99,North,0,11.5,11.5,30,0.00,CLR,SCT,0.00,WeatherDisplay:10.37,2013-07-14 01:08:00,
2013-07-13 18:13:00,82.2,47.7,29.99,North,0,10.4,10.4,30,0.00,CLR,SCT,0.00,WeatherDisplay:10.37,2013-07-14 01:13:00,
2013-07-13 18:18:00,81.9,47.4,29.99,North,0,11.5,11.5,30,0.00,CLR,SCT,0.00,WeatherDisplay:10.37,2013-07-14 01:18:00,
2013-07-13 18:23:00,81.5,47.1,29.99,North,0,10.4,10.4,30,0.00,CLR,SCT,0.00,WeatherDisplay:10.37,2013-07-14 01:23:00,
2013-07-13 18:29:00,81.0,46.6,29.99,North,0,12.7,12.7,30,0.00,CLR,SCT,0.00,WeatherDisplay:10.37,2013-07-14 01:29:00,
2013-07-13 18:34:00,80.2,46.0,29.99,North,0,8.1,8.1,30,0.00,CLR,SCT,0.00,WeatherDisplay:10.37,2013-07-14 01:34:00,
2013-07-13 18:39:00,80.1,45.8,29.99,North,0,11.5,11.5,30,0.00,CLR,SCT,0.00,WeatherDisplay:10.37,2013-07-14 01:39:00,
2013-07-13 18:44:00,80.1,45.8,29.99,North,0,12.7,12.7,30,0.00,CLR,SCT,0.00,WeatherDisplay:10.37,2013-07-14 01:44:00,
2013-07-13 18:49:00,79.7,45.5,29.99,North,0,11.5,11.5,30,0.00,CLR,SCT,0.00,WeatherDisplay:10.37,2013-07-14 01:49:00,
2013-07-13 18:54:00,79.3,45.2,29.99,North,0,10.4,10.4,30,0.00,CLR,SCT,0.00,WeatherDisplay:10.37,2013-07-14 01:54:00,
2013-07-13 19:00:00,79.2,45.0,29.99,North,0,12.7,12.7,30,0.00,CLR,SCT,0.00,WeatherDisplay:10.37,2013-07-14 02:00:00,
2013-07-13 19:05:00,78.8,44.7,29.99,North,1,15.0,15.0,30,0.00,CLR,SCT,0.00,WeatherDisplay:10.37,2013-07-14 02:05:00,
2013-07-13 19:10:00,78.3,45.1,29.99,North,0,12.7,12.7,31,0.00,CLR,SCT,0.00,WeatherDisplay:10.37,2013-07-14 02:10:00,
2013-07-13 19:15:00,77.7,44.7,29.99,North,0,9.2,9.2,31,0.00,CLR,SCT,0.00,WeatherDisplay:10.37,2013-07-14 02:15:00,
2013-07-13 19:20:00,77.5,44.5,29.99,North,0,12.7,12.7,31,0.00,CLR,SCT,0.00,WeatherDisplay:10.37,2013-07-14 02:20:00,
2013-07-13 19:25:00,77.0,44.0,29.99,North,0,10.5,10.5,31,0.00,CLR,SCT,0.00,WeatherDisplay:10.37,2013-07-14 02:25:00,
2013-07-13 19:30:00,76.8,43.9,29.99,NNE,16,11.5,11.5,31,0.00,CLR,SCT,0.00,WeatherDisplay:10.37,2013-07-14 02:30:00,
2013-07-13 19:35:00,76.8,43.9,29.99,North,0,15.0,15.0,31,0.00,CLR,SCT,0.00,WeatherDisplay:10.37,2013-07-14 02:35:00,
2013-07-13 19:41:00,76.8,43.9,29.99,NNE,23,10.4,10.4,31,0.00,CLR,SCT,0.00,WeatherDisplay:10.37,2013-07-14 02:41:00,
2013-07-13 19:46:00,77.0,44.0,29.99,North,0,10.4,10.4,31,0.00,CLR,SCT,0.00,WeatherDisplay:10.37,2013-07-14 02:46:00,
2013-07-13 19:51:00,77.2,44.2,29.99,NNE,19,11.5,11.5,31,0.00,CLR,SCT,0.00,WeatherDisplay:10.37,2013-07-14 02:51:00,
2013-07-13 19:56:00,77.0,44.0,29.99,North,0,8.1,8.1,31,0.00,CLR,SCT,0.00,WeatherDisplay:10.37,2013-07-14 02:56:00,
2013-07-13 20:01:00,76.6,43.7,29.99,North,0,16.1,16.1,31,0.00,CLR,SCT,0.00,WeatherDisplay:10.37,2013-07-14 03:01:00,
2013-07-13 20:06:00,76.5,43.6,30.02,North,0,12.7,12.7,31,0.00,CLR,SCT,0.00,WeatherDisplay:10.37,2013-07-14 03:06:00,
2013-07-13 20:12:00,76.3,43.4,30.02,North,0,12.7,12.7,31,0.00,CLR,SCT,0.00,WeatherDisplay:10.37,2013-07-14 03:12:00,
2013-07-13 20:17:00,75.9,43.1,30.02,North,0,16.1,16.1,31,0.00,CLR,SCT,0.00,WeatherDisplay:10.37,2013-07-14 03:17:00,
2013-07-13 20:22:00,75.6,42.8,30.02,North,0,11.5,11.5,31,0.00,CLR,SCT,0.00,WeatherDisplay:10.37,2013-07-14 03:22:00,
2013-07-13 20:27:00,77.0,44.0,29.99,North,0,5.8,7.6,31,0.00,CLR,SCT,0.00,WeatherDisplay:10.37,2013-07-14 03:27:00,
2013-07-13 20:33:00,76.8,43.9,29.99,North,0,10.4,10.4,31,0.00,CLR,SCT,0.00,WeatherDisplay:10.37,2013-07-14 03:33:00,
2013-07-13 20:38:00,76.6,43.7,29.99,North,0,11.5,11.5,31,0.00,CLR,SCT,0.00,WeatherDisplay:10.37,2013-07-14 03:38:00,
2013-07-13 20:43:00,76.5,43.6,30.02,North,0,10.4,10.4,31,0.00,CLR,SCT,0.00,WeatherDisplay:10.37,2013-07-14 03:43:00,
2013-07-13 20:48:00,76.1,43.3,30.02,North,0,17.3,17.3,31,0.00,CLR,SCT,0.00,WeatherDisplay:10.37,2013-07-14 03:48:00,
2013-07-13 20:53:00,75.7,42.9,30.02,North,0,12.7,12.7,31,0.00,CLR,SCT,0.00,WeatherDisplay:10.37,2013-07-14 03:53:00,
2013-07-13 20:59:00,75.4,42.6,30.02,NNE,31,17.3,17.3,31,0.00,CLR,SCT,0.00,WeatherDisplay:10.37,2013-07-14 03:59:00,
2013-07-13 21:01:00,75.4,42.6,30.02,North,0,9.2,9.2,31,0.00,CLR,SCT,0.00,WeatherDisplay:10.37,2013-07-14 04:01:00,
2013-07-13 21:07:00,75.0,42.3,30.02,North,0,11.5,11.5,31,0.00,CLR,SCT,0.00,WeatherDisplay:10.37,2013-07-14 04:07:00,
2013-07-13 21:12:00,74.7,42.0,30.02,North,0,12.7,12.7,31,0.00,CLR,SCT,0.00,WeatherDisplay:10.37,2013-07-14 04:12:00,
2013-07-13 21:17:00,74.3,41.7,30.02,North,0,9.2,9.2,31,0.00,CLR,SCT,0.00,WeatherDisplay:10.37,2013-07-14 04:17:00,
2013-07-13 21:22:00,74.1,41.5,30.02,North,0,4.6,7.2,31,0.00,CLR,SCT,0.00,WeatherDisplay:10.37,2013-07-14 04:22:00,
2013-07-13 21:27:00,73.8,41.2,30.02,North,0,5.8,6.7,31,0.00,CLR,SCT,0.00,WeatherDisplay:10.37,2013-07-14 04:27:00,
2013-07-13 21:32:00,73.8,41.2,30.02,North,0,8.1,8.1,31,0.00,CLR,SCT,0.00,WeatherDisplay:10.37,2013-07-14 04:32:00,
2013-07-13 21:37:00,73.0,41.4,30.02,North,0,2.3,3.6,32,0.00,CLR,SCT,0.00,WeatherDisplay:10.37,2013-07-14 04:37:00,
2013-07-13 21:42:00,72.9,41.3,30.02,North,0,12.7,12.7,32,0.00,CLR,SCT,0.00,WeatherDisplay:10.37,2013-07-14 04:42:00,
2013-07-13 21:47:00,72.5,41.0,30.02,North,0,8.1,8.7,32,0.00,CLR,SCT,0.00,WeatherDisplay:10.37,2013-07-14 04:47:00,
2013-07-13 21:52:00,72.3,40.8,30.02,North,0,5.8,5.8,32,0.00,CLR,SCT,0.00,WeatherDisplay:10.37,2013-07-14 04:52:00,
2013-07-13 21:57:00,71.8,40.3,30.02,North,0,8.1,8.1,32,0.00,CLR,SCT,0.00,WeatherDisplay:10.37,2013-07-14 04:57:00,
2013-07-13 22:02:00,71.2,39.9,30.02,North,0,10.4,10.4,32,0.00,CLR,SCT,0.00,WeatherDisplay:10.37,2013-07-14 05:02:00,
2013-07-13 22:08:00,70.7,39.4,30.02,WSW,256,8.1,8.1,32,0.00,CLR,SCT,0.00,WeatherDisplay:10.37,2013-07-14 05:08:00,
2013-07-13 22:13:00,70.5,39.2,30.05,North,0,5.8,5.8,32,0.00,CLR,SCT,0.00,WeatherDisplay:10.37,2013-07-14 05:13:00,
2013-07-13 22:18:00,70.2,38.9,30.05,North,11,8.1,8.1,32,0.00,CLR,SCT,0.00,WeatherDisplay:10.37,2013-07-14 05:18:00,
2013-07-13 22:23:00,69.8,38.6,30.05,North,0,5.8,7.2,32,0.00,CLR,SCT,0.00,WeatherDisplay:10.37,2013-07-14 05:23:00,
2013-07-13 22:28:00,69.6,39.2,30.05,North,0,8.1,8.1,33,0.00,CLR,SCT,0.00,WeatherDisplay:10.37,2013-07-14 05:28:00,
2013-07-13 22:33:00,69.3,38.9,30.05,North,0,8.1,8.1,33,0.00,CLR,SCT,0.00,WeatherDisplay:10.37,2013-07-14 05:33:00,
2013-07-13 22:39:00,69.1,38.8,30.05,North,0,8.1,8.1,33,0.00,CLR,SCT,0.00,WeatherDisplay:10.37,2013-07-14 05:39:00,
2013-07-13 22:44:00,68.9,38.6,30.05,North,0,8.1,8.1,33,0.00,CLR,SCT,0.00,WeatherDisplay:10.37,2013-07-14 05:44:00,
2013-07-13 22:49:00,68.7,38.4,30.05,North,0,9.2,9.2,33,0.00,CLR,SCT,0.00,WeatherDisplay:10.37,2013-07-14 05:49:00,
2013-07-13 22:54:00,68.4,38.1,30.05,North,0,5.8,5.8,33,0.00,CLR,SCT,0.00,WeatherDisplay:10.37,2013-07-14 05:54:00,
2013-07-13 22:59:00,67.8,37.6,30.05,North,0,5.8,5.8,33,0.00,CLR,SCT,0.00,WeatherDisplay:10.37,2013-07-14 05:59:00,
2013-07-13 23:04:00,67.5,37.3,30.05,North,1,5.8,5.8,33,0.00,CLR,SCT,0.00,WeatherDisplay:10.37,2013-07-14 06:04:00,
2013-07-13 23:09:00,67.3,37.2,30.05,North,0,5.8,5.8,33,0.00,CLR,SCT,0.00,WeatherDisplay:10.37,2013-07-14 06:09:00,
2013-07-13 23:14:00,66.9,36.9,30.05,North,0,6.9,6.9,33,0.00,CLR,SCT,0.00,WeatherDisplay:10.37,2013-07-14 06:14:00,
2013-07-13 23:20:00,66.6,36.5,30.05,North,0,5.8,5.8,33,0.00,CLR,SCT,0.00,WeatherDisplay:10.37,2013-07-14 06:20:00,
2013-07-13 23:25:00,66.2,36.2,30.05,North,0,5.8,5.8,33,0.00,CLR,SCT,0.00,WeatherDisplay:10.37,2013-07-14 06:25:00,
2013-07-13 23:30:00,66.0,36.1,30.05,North,0,5.8,5.8,33,0.00,CLR,SCT,0.00,WeatherDisplay:10.37,2013-07-14 06:30:00,
2013-07-13 23:35:00,65.7,35.8,30.05,North,0,5.8,5.8,33,0.00,CLR,SCT,0.00,WeatherDisplay:10.37,2013-07-14 06:35:00,
2013-07-13 23:40:00,65.5,35.6,30.05,North,0,5.8,5.8,33,0.00,CLR,SCT,0.00,WeatherDisplay:10.37,2013-07-14 06:40:00,
2013-07-13 23:45:00,65.1,35.3,30.05,North,0,5.8,5.8,33,0.00,CLR,SCT,0.00,WeatherDisplay:10.37,2013-07-14 06:45:00,
2013-07-13 23:50:00,64.8,35.0,30.05,North,11,4.9,4.9,33,0.00,CLR,SCT,0.00,WeatherDisplay:10.37,2013-07-14 06:50:00,
2013-07-13 23:55:00,64.6,34.8,30.05,North,0,2.3,3.6,33,0.00,CLR,SCT,0.00,WeatherDisplay:10.37,2013-07-14 06:55:00,